Regional Weather Roundup
Issued by NWS

Home | Current Version | Previous Version | Text Only | Print | Product List | Glossary Off
Versions: 1 2 3 4 5 6 7 8 9 10 11 12 13 14 15 16 17 18 19 20 21 22 23 24 25 26 27 28 29 30 31 32 33 34 35 36 37 38 39 40 41 42 43 44 45 46 47 48 49 50

000
ASUS43 KMKX 312300
RWRWI

WISCONSIN REGIONAL WEATHER ROUNDUP
NATIONAL WEATHER SERVICE MILWAUKEE/SULLIVAN WI
600 PM CDT SUN AUG 31 2014

NOTE: "FAIR" INDICATES FEW OR NO CLOUDS BELOW 12,000 FEET WITH NO
SIGNIFICANT WEATHER AND/OR OBSTRUCTIONS TO VISIBILITY.

WIZ001-002-006>008-014>016-023>028-010000-
NORTHWEST WISCONSIN

CITY           SKY/WX    TMP DP  RH WIND       PRES   REMARKS
SUPERIOR ARPT  CLOUDY    64  61  91 NE12      29.66F
ASHLAND        SUNNY     78  66  66 S12G20    29.68F HX  80
HAYWARD        MOSUNNY   77  68  73 S13G18    29.71F
SIREN          CLOUDY    79  70  73 S7        29.67F HX  82
RICE LAKE      PTSUNNY   79  68  70 SE13      29.71F HX  81
LADYSMITH      MOSUNNY   78  68  71 SE10      29.77S HX  80
EAU CLAIRE     MOSUNNY   82  70  66 S13       29.73S HX  86
MENOMONIE      MOCLDY    82  69  65 SE10      29.72S HX  85
NEW RICHMOND   CLOUDY    81  69  67 S12       29.70S HX  84
OSCEOLA        CLOUDY    81  73  78 S10       29.70F HX  85
$$

WIZ003>005-009-010-017-018-010000-
NORTH CENTRAL WISCONSIN

CITY           SKY/WX    TMP DP  RH WIND       PRES   REMARKS
WOODRUFF       SUNNY     77  66  69 S15       29.80F
RHINELANDER    SUNNY     73  63  70 S12G22    29.83F
EAGLE RIVER      N/A     73  61  64 S9        29.82S
LAND O LAKES   SUNNY     73  61  67 S10G18    29.82F
PHILLIPS       CLOUDY    75  65  71 S13G22    29.77F
TOMAHAWK       MOSUNNY   75  64  67 S3        29.82S
MEDFORD        MOSUNNY   75  68  77 SE14      29.81F
MERRILL        PTSUNNY   75  65  70 S7        29.82F
$$

WIZ029-030-035-036-043>047-010000-
CENTRAL WISCONSIN

CITY           SKY/WX    TMP DP  RH WIND       PRES   REMARKS
WAUSAU         MOSUNNY   76  65  68 SE13      29.81F
MOSINEE        NOT AVBL
MARSHFIELD     PTSUNNY   79  67  66 S12       29.81F HX  81
STEVENS POINT  PTSUNNY   78  66  66 SE9       29.83F HX  80
WAUPACA        MOSUNNY   81  67  63 SE7       29.84S HX  83
WAUTOMA        NOT AVBL
WISC RAPIDS    PTSUNNY   81  67  62 S9        29.83S HX  83
CAMP DOUGLAS   NOT AVBL
$$

WIZ011>013-019>022-031-037>040-048>050-010000-
NORTHEAST WISCONSIN

CITY           SKY/WX    TMP DP  RH WIND       PRES   REMARKS
ANTIGO         MOSUNNY   72  65  80 SE12      29.86S
STURGEON BAY   CLOUDY    64  61  88 SE9       29.90S
GREEN BAY      MOSUNNY   71  66  84 SE15      29.87S
MANITOWOC      NOT AVBL
APPLETON       PTSUNNY   73  66  78 SE12      29.86F
CLINTONVILLE   PTSUNNY   79  66  65 SE8       29.84F HX  81
OSHKOSH        MOSUNNY   80  67  64 S7        29.85F HX  82
$$

WIZ032>034-041-042-053>061-010000-
SOUTHWEST WISCONSIN

CITY           SKY/WX    TMP DP  RH WIND       PRES   REMARKS
LA CROSSE      MOSUNNY   84  69  60 S14       29.76R HX  88
SPARTA         MOSUNNY   83  65  55 S10       29.79S HX  84
VIROQUA        FAIR      81  66  61 S12G18    29.81F HX  83
BOSCOBEL       SUNNY     84  66  54 VRB7      29.80F HX  86
PRAIRIE DU CHI MOSUNNY   82  66  57 SE7       29.79S HX  85
PLATTEVILLE    FAIR      81  66  59 CALM      29.85F HX  83
$$

WIZ056-057-062-063-064-067-068-010000-
SOUTH CENTRAL WISCONSIN

CITY           SKY/WX    TMP DP  RH WIND       PRES   REMARKS
BARABOO/DELLS  SUNNY     84  64  51 S13       29.84S HX  85
LONE ROCK      NOT AVBL
WATERTOWN      SUNNY     82  66  59 S7        29.86F HX  84
MADISON        MOSUNNY   83  66  56 S14       29.86R HX  85
MIDDLETON      FAIR      84  65  51 S10G16    29.86R HX  86
MONROE         SUNNY     82  68  61 S13       29.87S HX  85
JANESVILLE     MOSUNNY   84  63  48 S14       29.87F HX  85
$$

WIZ051-052-058>065-066-070>072-010000-
SOUTHEAST WISCONSIN

CITY           SKY/WX    TMP DP  RH WIND       PRES   REMARKS
MILWAUKEE      MOSUNNY   78  69  73 SE10      29.89S HX  80
WAUKESHA       NOT AVBL
MILWAUKEE/TIMM SUNNY     77  66  69 SE6       29.89F
RACINE         SUNNY     78  69  73 SE10      29.90F HX  80
BURLINGTON     SUNNY     80  65  59 S6        29.89S HX  82
KENOSHA        SUNNY     81  70  69 SE8       29.89S HX  84
FOND DU LAC    MOSUNNY   80  66  62 S9        29.86F HX  82
SHEBOYGAN      CLOUDY    68  65  90 SE9       29.90F
WEST BEND      SUNNY     72  64  78 SE7       29.90S
JUNEAU         MOSUNNY   81  65  59 S12       29.87F HX  83
$$

LSZ147-162-010000-
LAKE SUPERIOR

STATION/POSITION TIME  TEMP    WIND        PRES    WAVE
                       AIR SEA DIR/SP/G            HT/PER
                 (UTC) (F)     (DEG/KT/KT) (MB)    (FT/S)
W MID LAKE BUOY  2150   61 58   90/ 14/ 17 1006.5F   2/ 3
DEVILS ISLAND    2200   63      70/ 10/ 11 1005.9F
PORT WING        2200   78     120/  3/  9 1004.4F
SAXON HARBOR     2200   79     190/  5/ 12 1005.8S
$$

LMZ867-665-643>646-010000-
LAKE MICHIGAN

STATION/POSITION TIME  TEMP    WIND        PRES    WAVE
                       AIR SEA DIR/SP/G            HT/PER
                 (UTC) (F)     (DEG/KT/KT) (MB)    (FT/S)
N MID LAKE BUOY  2150   63 66  150/  4/  4 1013.0F   1
NORTHPORT PIER   2200   65     130/  9/ 11 1012.5F
KEWAUNEE LAKESHO 2200   64     120/  4/  6 1011.9F
SHEBOYGAN LAKESH 2200   65 52  160/  8/  9 1013.0R
ATWATER BUOY     2200   69     110/  8/ 10 1013.4F
MILWAUKEE LAKESH 2200   68      70/  6/  6   N/A
S MID LAKE BUOY  2150   72 72  140/  6/  8 1012.6F   1
KENOSHA   LAKESH 2200   72     170/  7/  8 1011.9S
$$

TC  - TEMPERATURE IN CELSIUS
VSB - VISIBILITY IN STATUTE MILES
WCI - WIND CHILL INDEX
HX  - HEAT INDEX




USA.gov is the U.S. government's official web portal to all federal, state and local government web resources and services.